Theta_e
322 328 331 330 330 328 329 331 330 328 322 319 320 321 322 320 318 316 317 316 314 313 322 329 332 333 332 332 330 330 329 329 330 332 331 330 330 329 329 328 326 325 324 323
323 329 327 327 328 330 329 331 331 324 322 320 320 321 319 318 318 317 316 315 314 313 313 319 327 331 331 331 330 329 329 329 329 330 331 330 330 328 328 329 329 326 326 325
327 326 324 327 329 331 330 332 331 329 320 320 321 322 321 319 318 317 317 317 315 314 314 311 319 327 329 329 329 329 329 329 329 328 330 330 329 328 327 327 327 328 328 327
325 323 325 327 329 330 334 329 330 324 326 328 319 327 316 317 319 317 319 315 315 313 313 313 314 322 327 329 330 329 329 329 329 328 328 328 328 327 327 326 325 325 327 328
325 324 326 328 328 328 331 321 325 326 324 321 318 321 319 315 316 314 314 316 316 314 313 313 313 318 324 328 329 329 329 328 329 328 328 328 327 327 327 326 326 326 326 326
322 320 323 326 325 326 322 321 323 320 320 330 322 321 320 317 316 315 313 312 313 312 313 314 317 317 318 324 327 329 328 328 328 328 327 327 327 327 326 326 326 326 325 325
323 323 321 322 327 325 324 329 326 328 328 330 317 320 324 317 314 313 313 311 311 310 309 310 309 312 317 318 323 327 328 329 329 328 328 328 328 327 327 327 326 326 326 326
326 328 324 323 327 329 327 329 327 332 328 324 314 323 322 315 315 311 311 310 308 307 307 307 308 310 312 314 318 323 327 328 329 330 329 329 328 327 327 327 326 326 326 326
324 325 322 323 323 325 327 329 321 314 304 314 315 314 313 311 312 311 311 308 307 305 304 304 305 308 308 310 313 319 324 327 328 329 330 329 329 328 327 327 327 327 327 327
321 324 323 324 320 322 324 319 321 317 317 318 316 315 316 314 313 312 308 308 307 306 305 304 304 307 308 308 309 312 318 323 326 327 328 330 331 331 330 329 328 328 328 328
318 321 322 321 325 326 321 324 319 317 315 319 317 316 310 314 314 312 308 307 306 305 303 303 304 307 308 308 309 309 309 312 315 318 322 326 327 328 329 330 330 330 329 329
319 321 323 325 312 317 320 324 317 324 320 314 315 315 309 312 313 310 308 308 305 304 302 302 303 306 307 308 308 309 309 308 309 308 308 309 310 314 318 324 327 329 330 330
317 321 325 321 316 315 321 318 320 315 314 316 318 317 309 307 309 307 307 303 303 303 302 301 301 303 306 307 308 309 309 309 309 308 309 309 309 308 308 309 309 313 320 327
315 318 322 324 321 321 323 319 320 318 317 319 319 315 309 307 307 306 304 303 303 302 302 301 301 302 305 306 307 308 308 308 308 308 308 308 309 309 309 309 309 310 313 319
316 320 314 315 317 318 321 321 318 320 319 319 318 314 310 307 305 305 305 303 302 303 302 301 301 300 303 305 306 307 308 308 308 308 308 308 308 309 309 309 309 309 309 310
312 314 314 310 316 317 317 320 317 319 319 316 315 315 313 306 305 303 304 304 304 304 303 302 301 301 302 304 306 306 307 308 307 307 307 307 308 308 308 308 308 308 309 309
315 310 314 313 314 315 319 317 318 317 317 317 318 316 310 309 306 305 305 304 305 304 303 302 301 301 303 304 305 306 306 306 306 306 306 306 307 307 307 307 307 307 306 305
314 313 308 312 317 322 316 314 315 316 317 317 316 315 312 312 311 307 305 305 303 302 302 302 301 302 304 305 304 305 305 305 305 305 305 306 306 305 305 304 304 304 301 302
312 311 311 316 319 310 309 310 315 317 317 316 316 316 312 307 307 307 303 302 303 302 301 302 304 304 303 303 303 303 304 304 304 304 304 304 304 304 303 303 300 301 302 304
311 311 313 306 319 318 313 306 313 313 319 315 315 316 308 306 311 312 303 302 301 301 302 302 303 302 302 301 301 302 301 301 301 301 302 302 302 302 302 299 299 302 303 303
315 314 317 317 314 311 306 307 313 319 317 313 314 315 312 311 314 308 302 301 300 300 300 301 301 299 299 300 300 300 299 299 299 299 300 299 299 299 298 297 299 301 301 300
316 317 314 307 311 318 301 311 316 314 308 304 309 313 313 312 306 301 300 298 297 296 296 297 296 295 296 298 300 298 297 296 296 297 297 297 297 297 296 296 298 298 296 296
315 315 315 313 314 304 305 309 309 305 303 302 301 301 309 309 301 300 299 297 296 294 294 295 295 293 294 297 298 296 295 296 296 297 297 297 296 294 294 295 295 294 294 293
305 304 310 309 305 304 302 304 303 303 303 301 300 298 300 302 299 297 297 294 293 292 292 293 292 290 290 293 294 294 293 294 295 295 294 294 292 292 293 293 293 292 292 292
306 305 302 303 304 302 302 302 303 302 298 299 298 298 299 298 296 297 294 293 292 291 291 291 291 289 287 291 291 292 293 294 294 293 292 290 289 291 291 292 292 291 291 291
298 307 312 311 303 304 304 302 300 300 299 298 298 299 297 296 296 293 293 290 290 288 288 288 288 286 285 286 287 290 291 292 292 291 290 290 289 289 289 289 289 289 289 289
Wind_Speed
7 9 22 30 22 7 9 8 11 8 5 5 11 8 11 8 4 7 9 10 12 13 24 26 33 37 35 38 40 42 43 41 38 38 38 36 38 34 31 31 32 31 30 30
7 21 23 16 11 17 14 12 11 3 3 7 6 13 10 7 7 8 10 10 10 8 8 17 28 31 35 40 43 41 45 43 41 40 40 34 35 35 39 37 36 35 34 33
16 22 16 15 17 18 8 18 11 7 4 1 3 8 7 8 6 9 13 10 9 12 12 9 21 29 33 36 42 45 47 45 43 42 38 34 28 30 31 39 42 42 38 37
19 12 19 22 22 19 18 7 9 6 10 6 6 5 5 8 14 9 19 10 13 12 9 9 17 25 32 40 43 47 46 45 43 41 38 39 34 30 34 35 40 42 43 40
16 26 26 27 33 23 6 10 8 5 6 4 4 2 6 3 7 11 14 17 17 15 13 11 17 28 38 37 40 45 43 44 44 42 41 40 37 34 30 33 35 37 41 41
6 14 18 18 11 12 10 10 8 5 1 9 9 8 5 6 8 6 7 11 13 11 11 11 21 26 29 38 39 38 37 42 43 44 44 41 38 32 27 30 34 34 37 41
16 18 8 16 17 7 8 18 4 4 4 5 7 7 12 7 8 9 11 10 11 10 9 10 9 13 19 25 32 36 38 39 40 44 44 44 44 39 36 37 37 32 36 37
24 14 23 21 23 15 25 18 6 8 5 4 4 9 8 13 10 9 7 6 6 8 8 8 10 16 20 21 25 33 37 39 38 41 43 44 43 39 39 38 37 36 36 38
21 18 16 25 13 19 11 14 11 7 3 3 5 6 9 7 9 9 10 5 7 7 8 9 8 10 9 8 15 23 30 34 33 37 39 38 40 40 37 39 36 38 40 42
7 13 21 20 13 14 15 10 7 1 7 5 4 5 7 7 11 13 9 10 9 7 6 6 7 10 8 7 7 11 18 26 29 30 30 35 38 40 42 39 40 42 42 38
7 17 11 14 14 20 8 13 6 5 4 9 4 7 9 17 17 16 12 11 10 9 9 8 8 10 9 6 5 6 9 13 16 20 24 28 33 35 37 38 39 39 39 39
15 15 11 27 1 8 19 20 6 13 8 4 4 6 7 16 15 10 11 11 8 8 10 8 12 14 10 6 4 6 7 9 11 13 17 22 25 29 32 35 35 34 36 38
10 10 15 6 4 3 18 11 19 4 4 7 6 6 4 6 7 9 11 9 8 9 8 7 7 11 13 11 8 7 8 9 11 12 15 18 21 22 25 28 30 30 31 33
10 6 21 23 26 27 30 21 29 13 6 8 17 5 5 5 11 8 8 11 11 9 9 8 7 9 13 12 10 9 10 11 11 13 16 20 19 19 20 21 22 23 24 25
14 4 5 2 14 13 23 25 20 20 18 11 14 8 8 9 9 13 15 9 8 9 9 9 8 7 14 12 11 10 11 11 11 14 17 20 17 17 17 18 18 20 22 24
3 7 11 2 17 20 13 25 16 23 17 9 4 9 9 8 2 7 11 13 12 12 9 9 9 9 13 14 9 8 11 12 12 15 19 18 17 16 16 16 16 17 18 18
22 9 11 7 13 12 7 24 26 24 26 28 24 22 9 8 10 13 15 14 16 12 10 10 11 9 7 5 6 8 8 9 11 14 16 15 14 15 15 15 15 16 17 18
17 15 4 5 14 12 8 25 31 33 32 28 21 16 16 13 17 14 16 19 11 10 10 8 5 6 6 6 4 5 7 10 11 11 10 9 11 13 14 14 15 16 16 17
18 6 5 7 13 1 5 15 32 26 31 32 28 26 8 7 5 10 9 8 12 10 8 9 10 9 6 3 2 3 3 4 6 7 7 7 9 12 14 15 14 13 14 15
8 7 9 4 10 17 13 9 17 4 17 25 37 30 9 9 11 16 10 9 8 10 16 17 13 10 8 4 1 1 1 0 2 4 6 8 9 8 11 12 10 11 14 16
10 7 13 12 5 7 6 12 23 15 19 20 29 26 18 17 24 9 9 6 8 11 17 17 15 13 9 7 7 6 4 2 2 3 4 4 5 5 6 7 9 11 12 13
11 12 6 4 2 16 11 26 29 21 4 3 14 23 29 29 9 8 9 9 11 11 16 18 19 15 11 10 10 9 7 2 1 2 2 2 2 4 3 5 7 8 8 7
5 12 12 16 12 0 25 15 10 5 5 6 8 9 22 17 10 13 10 13 11 14 17 19 21 16 10 8 9 10 7 7 4 4 5 5 4 5 2 3 4 5 6 6
2 4 6 6 6 6 15 2 3 3 6 5 5 7 11 13 11 9 12 10 11 15 16 23 23 18 13 10 8 8 8 7 8 7 8 7 8 7 4 1 1 2 4 5
3 10 7 1 1 4 4 7 12 4 7 6 5 5 10 12 11 12 10 11 9 14 17 21 20 18 16 13 10 9 8 9 10 9 8 8 6 5 6 4 2 2 3 5
4 2 13 6 8 4 9 11 9 9 8 10 8 4 5 7 13 8 11 9 14 15 21 21 21 20 18 15 12 10 10 11 12 12 11 9 8 7 5 4 4 6 4 2
Wind_Direction
196 193 198 195 199 177 168 162 195 213 197 137 202 215 235 222 221 228 230 224 219 214 228 218 217 215 211 215 218 217 217 219 217 215 217 221 223 223 223 225 230 230 231 227
178 211 203 186 178 197 166 193 197 226 182 171 205 238 242 245 236 209 228 231 220 217 219 218 217 212 210 210 214 214 217 219 219 219 220 218 224 227 230 232 232 232 233 232
193 208 190 179 183 193 184 199 198 201 106 7 107 272 222 249 236 246 247 229 232 216 213 217 214 210 209 207 210 215 219 219 220 221 219 221 225 232 235 236 235 233 233 234
209 199 177 189 195 186 204 159 189 152 151 201 162 270 249 216 236 221 243 229 228 228 228 213 210 210 210 214 216 217 220 221 221 219 213 214 216 221 227 233 234 234 234 236
199 179 179 190 196 190 188 128 147 182 174 127 199 214 265 188 236 230 231 235 228 226 221 221 213 217 219 219 217 219 218 220 224 220 217 217 220 227 230 232 237 238 238 237
190 189 177 194 174 176 124 95 47 39 59 222 196 188 246 198 206 246 226 228 222 211 218 230 232 229 226 225 223 222 217 220 222 224 221 221 223 225 227 230 234 236 240 242
195 182 169 159 149 163 146 156 134 190 206 231 159 183 238 230 240 225 233 231 219 206 199 221 232 223 229 229 225 223 222 220 223 223 225 225 229 227 227 233 235 232 236 235
185 191 172 176 187 181 175 175 159 170 183 195 120 222 237 220 219 214 226 243 192 185 194 207 224 233 231 234 230 225 223 225 224 227 227 230 232 229 231 235 236 236 236 241
184 207 184 179 178 157 179 195 168 97 349 99 204 280 298 209 229 241 242 200 191 172 182 183 180 193 203 221 232 229 227 232 228 231 233 231 234 233 233 238 239 239 244 245
216 181 185 183 144 194 183 157 162 208 145 218 250 274 222 220 216 231 204 203 206 199 178 180 174 185 196 201 211 219 227 235 240 242 241 240 241 243 243 241 242 241 243 243
219 175 168 163 202 173 157 188 180 133 173 188 161 244 203 203 216 202 202 199 187 189 184 184 178 175 171 169 184 201 219 232 243 248 250 249 249 249 250 250 248 249 247 245
204 191 167 193 22 204 179 189 177 188 206 231 163 258 189 207 208 175 191 199 204 187 184 188 178 176 184 197 218 229 226 240 247 251 252 252 255 254 254 254 256 256 255 254
191 163 158 167 344 303 198 180 202 113 91 200 156 250 191 182 172 188 180 185 185 180 187 186 177 196 211 214 219 224 226 256 267 266 269 268 265 264 263 263 263 261 261 261
164 176 186 188 186 182 189 200 198 186 167 187 211 203 274 182 180 185 184 172 181 187 182 183 188 210 221 221 221 226 242 255 268 267 270 273 272 272 271 271 270 267 263 262
177 155 148 183 172 180 203 195 190 200 203 191 223 206 225 205 189 179 175 177 167 193 195 195 194 213 221 224 225 236 252 256 265 269 272 274 277 276 274 273 272 271 268 266
217 153 158 356 170 184 195 202 199 210 213 257 178 218 194 207 149 143 172 181 190 201 203 197 210 215 222 220 235 253 255 259 261 266 275 281 274 276 277 276 275 278 280 281
181 152 160 194 165 135 206 195 200 210 209 211 215 220 156 184 185 189 191 190 197 195 200 202 204 203 216 229 238 238 252 252 256 271 279 279 281 283 284 281 281 285 290 293
180 157 85 130 124 193 225 195 198 204 210 214 231 212 192 198 207 192 203 197 195 196 209 219 207 192 182 180 206 246 258 262 271 277 272 273 278 286 288 283 285 290 298 304
178 135 102 155 195 314 253 199 191 192 221 215 223 229 194 172 123 247 183 179 192 196 201 204 193 170 170 191 269 290 292 295 301 302 298 292 291 295 291 292 304 309 306 300
138 143 143 139 182 208 236 153 201 155 259 215 216 224 154 133 198 225 173 186 193 174 174 165 160 158 158 151 156 118 119 338 313 304 298 296 287 283 287 290 291 288 289 295
145 132 173 177 190 273 222 153 134 161 237 223 211 208 179 199 214 168 149 149 156 156 152 154 155 153 155 157 154 135 113 93 297 292 290 292 290 292 291 287 284 286 292 299
155 152 163 116 191 255 163 151 171 193 143 131 189 192 201 213 170 149 162 139 145 150 151 158 147 148 152 158 150 142 143 144 152 120 91 65 39 24 13 295 280 288 294 295
147 182 172 190 194 339 174 167 201 176 151 169 169 192 203 202 166 155 161 159 154 156 157 161 152 147 142 133 150 151 149 145 141 123 109 97 76 75 29 320 314 309 299 293
335 151 157 108 205 197 184 294 189 160 143 164 147 160 159 168 155 155 148 144 150 158 160 158 153 144 127 135 142 149 144 135 140 136 118 112 116 127 123 113 4 315 309 298
185 150 149 253 112 89 205 192 172 144 122 120 83 142 163 148 160 155 150 156 155 154 156 159 148 140 136 138 143 143 147 150 133 117 102 94 100 103 114 118 81 14 327 295
353 202 192 226 155 135 188 200 155 147 162 150 130 107 92 137 148 140 150 150 148 150 158 148 145 143 146 147 142 136 140 135 124 111 108 105 106 94 92 84 67 71 75 346